FENGYUN 1C DEB, 32174

Orbit data source: Space-Track

FENGYUN 1C DEB, 32174 is space debris in SSO originally from a launch on Mon, 10 May 1999 UTC launched from the Taiyaun Space Center, China (TSC). Fengyun 1C debris stems from the Chinese weather satellite Fengyun-1C, which was intentionally destroyed by a Chinese anti-satellite missile in 2007. This event dramatically increased the amount of space debris, with thousands of trackable fragments posing hazards to satellites and human spaceflight. The Fengyun 1C debris cloud has become a focal point in discussions about space sustainability and the need for international regulations to prevent the creation of new debris.

Loading next visibility...
Identifier
32174, 1999-025CTU
Orbit
SSO
Country
Flag of CNCN / PRC
Related business
Manufacturer
Unknown
Mission
Spacecraft
Bus & Motor
Unknown
Mass
Unknown
Launch date (UTC)
1999-05-10 (27 years ago)
Launch vehicle
Unknown
Launch site
Taiyaun Space Center, China (TSC)
Object type
Payload
Rocket body
Debris
Shape & HBR
Unknown shape, 0.1 m
Radar Cross Section
Small (<0.1 m²)

Expand to show TLE details & history
Last TLE update: 2 weeks ago

TLE from 2 weeks ago
0 FENGYUN 1C DEB
1 32174U 99025CTU 26146.39931089  .00000543  00000-0  25386-3 0  9992
2 32174  98.5767 208.2627 0151999 131.3084 230.1291 14.18122470664398
Epoch: 2026-05-26T09:35Z
TLE epoch observation values (Epoch: 2026-05-26T09:35:00.460Z)
Latitude
-0.00008°
Longitude
-179.46251°
Altitude
905.862 km
Speed
7.362 km/s
True Right ascension
13h 53m 03s
True Declination
0° 00' 00"
Sunlit
Object was in full shadow at epoch
Visualization orbit readout
Latitude
Unknown
Longitude
Unknown
Altitude
Unknown
Speed
Unknown
Apparent Right ascension
Unknown
Apparent Declination
Unknown
Sunlit
N/A
Visualization observer readout
Local Sidereal Time
02:41:01
Azimuth
Unknown
Elevation
Unknown
Doppler factor
Unknown
Orbital elements
Apogee altitude
938.409 km
Perigee altitude
719.318 km
Semi-major axis
7,207 km
Eccentricity
0.0152
Inclination
98.5767°
RAAN
208.2627°
Arg. of periapsis
131.3084°
True anomaly
228.80851°
Mean anomaly
230.1291°
Eccentric anomaly
229.46719°
Mean motion
3.54741 °/min
Orbital period
101.48 mins
BSTAR
0.00025386
Loading maneuver chart data...
Computing Atmospheric mass density...

Documentation

Showing up to 5 results
|